| time (UTC) | temp C | wind direction | speed KPH | gust KPH | rain 1hr cm | rain 24hr cm | rain mn cm | humidity % | barometer mb |
| 20260902045317 | 27 | 135 | 0.0 | 1.6 | 0.00 | 0.00 | 0.00 | 85 | 1011.4 |
| 20260902044813 | 27 | 135 | 1.6 | 4.8 | 0.00 | 0.00 | 0.00 | 84 | 1011.3 |
| 20260902044308 | 27 | 136 | 1.6 | 3.2 | 0.00 | 0.00 | 0.00 | 84 | 1011.2 |
| 20260902043802 | 27 | 137 | 1.6 | 1.6 | 0.00 | 0.00 | 0.00 | 84 | 1011.2 |
| 20260902043258 | 27 | 137 | 0.0 | 3.2 | 0.00 | 0.00 | 0.00 | 84 | 1011.4 |
| 20260902042757 | 27 | 136 | 0.0 | 3.2 | 0.00 | 0.00 | 0.00 | 84 | 1011.4 |
| 20260902042252 | 27 | 137 | 3.2 | 3.2 | 0.00 | 0.00 | 0.00 | 84 | 1011.4 |
| 20260902041748 | 27 | 137 | 0.0 | 4.8 | 0.00 | 0.00 | 0.00 | 83 | 1011.2 |
| 20260902041247 | 27 | 167 | 1.6 | 3.2 | 0.00 | 0.00 | 0.00 | 83 | 1011.2 |
| 20260902040746 | 27 | 162 | 0.0 | 3.2 | 0.00 | 0.00 | 0.00 | 82 | 1011.5 |
| 20260902040242 | 27 | 185 | 1.6 | 3.2 | 0.00 | 0.00 | 0.00 | 82 | 1011.3 |
| 20260902035740 | 27 | 176 | 1.6 | 3.2 | 0.00 | 0.00 | 0.00 | 82 | 1011.6 |
| 20260902035236 | 27 | 174 | 1.6 | 1.6 | 0.00 | 0.00 | 0.00 | 81 | 1011.4 |
| 20260902034734 | 27 | 171 | 1.6 | 1.6 | 0.00 | 0.00 | 0.00 | 81 | 1011.4 |
| 20260902034230 | 28 | 172 | 0.0 | 3.2 | 0.00 | 0.00 | 0.00 | 80 | 1011.6 |
| 20260902033728 | 28 | 174 | 1.6 | 3.2 | 0.00 | 0.00 | 0.00 | 80 | 1011.4 |
| 20260902033223 | 28 | 220 | 4.8 | 9.7 | 0.00 | 0.00 | 0.00 | 80 | 1011.4 |
| 20260902032722 | 28 | 232 | 4.8 | 4.8 | 0.00 | 0.00 | 0.00 | 79 | 1011.5 |
| 20260902032217 | 28 | 164 | 1.6 | 3.2 | 0.00 | 0.00 | 0.00 | 79 | 1011.6 |
| 20260902031717 | 28 | 281 | 1.6 | 3.2 | 0.00 | 0.00 | 0.00 | 79 | 1011.4 |
| 20260902031212 | 28 | 172 | 0.0 | 4.8 | 0.00 | 0.00 | 0.00 | 79 | 1011.5 |
| 20260902030709 | 28 | 257 | 4.8 | 4.8 | 0.00 | 0.00 | 0.00 | 78 | 1011.6 |
| 20260902030208 | 28 | 162 | 0.0 | 1.6 | 0.00 | 0.00 | 0.00 | 78 | 1011.5 |
| 20260902025707 | 28 | 175 | 1.6 | 4.8 | 0.00 | 0.00 | 0.00 | 77 | 1011.5 |
| 20260902025203 | 28 | 164 | 3.2 | 4.8 | 0.00 | 0.00 | 0.00 | 76 | 1011.3 |
| 20260902024658 | 28 | 145 | 3.2 | 8.0 | 0.00 | 0.00 | 0.00 | 76 | 1011.2 |
| 20260902024153 | 29 | 164 | 3.2 | 4.8 | 0.00 | 0.00 | 0.00 | 76 | 1011.4 |
| 20260902023648 | 29 | 201 | 3.2 | 8.0 | 0.00 | 0.00 | 0.00 | 75 | 1011.4 |
| 20260902023143 | 29 | 199 | 4.8 | 9.7 | 0.00 | 0.00 | 0.00 | 76 | 1011.6 |
| 20260902022643 | 29 | 69 | 3.2 | 8.0 | 0.00 | 0.00 | 0.00 | 76 | 1011.5 |
| 20260902022139 | 29 | 224 | 4.8 | 9.7 | 0.00 | 0.00 | 0.00 | 76 | 1011.3 |
| 20260902021634 | 29 | 167 | 1.6 | 11.3 | 0.00 | 0.00 | 0.00 | 76 | 1011.2 |
| 20260902021129 | 29 | 262 | 4.8 | 8.0 | 0.00 | 0.00 | 0.00 | 76 | 1011.6 |
| 20260902020625 | 29 | 169 | 3.2 | 4.8 | 0.00 | 0.00 | 0.00 | 76 | 1011.3 |
| 20260902020120 | 29 | 237 | 3.2 | 4.8 | 0.00 | 0.00 | 0.00 | 77 | 1011.3 |
| 20260902015616 | 29 | 163 | 1.6 | 4.8 | 0.00 | 0.00 | 0.00 | 76 | 1011.2 |
| 20260902015112 | 30 | 161 | 4.8 | 4.8 | 0.00 | 0.00 | 0.00 | 76 | 1011.1 |
| 20260902014608 | 30 | 162 | 1.6 | 4.8 | 0.00 | 0.00 | 0.00 | 75 | 1011.1 |
| 20260902014103 | 30 | 240 | 3.2 | 4.8 | 0.00 | 0.00 | 0.00 | 75 | 1011.1 |
| 20260902013602 | 30 | 253 | 4.8 | 8.0 | 0.00 | 0.00 | 0.00 | 75 | 1011.0 |
| 20260902013058 | 30 | 174 | 3.2 | 11.3 | 0.00 | 0.00 | 0.00 | 75 | 1011.0 |
| 20260902012553 | 30 | 151 | 1.6 | 11.3 | 0.00 | 0.00 | 0.00 | 76 | 1010.8 |
| 20260902012048 | 30 | 287 | 3.2 | 4.8 | 0.00 | 0.00 | 0.00 | 76 | 1010.8 |
| 20260902011544 | 30 | 241 | 3.2 | 4.8 | 0.00 | 0.00 | 0.00 | 75 | 1010.6 |
| 20260902011043 | 30 | 173 | 4.8 | 8.0 | 0.00 | 0.00 | 0.00 | 75 | 1010.7 |
| 20260902010543 | 30 | 173 | 1.6 | 4.8 | 0.00 | 0.00 | 0.00 | 76 | 1010.7 |
| 20260902010039 | 30 | 188 | 1.6 | 4.8 | 0.00 | 0.00 | 0.00 | 75 | 1010.9 |
| 20260902005536 | 30 | 175 | 6.4 | 8.0 | 0.00 | 0.00 | 0.00 | 75 | 1010.4 |
| 20260902005033 | 30 | 179 | 3.2 | 4.8 | 0.00 | 0.00 | 0.00 | 74 | 1010.4 |
| 20260902004532 | 30 | 175 | 4.8 | 8.0 | 0.00 | 0.00 | 0.00 | 75 | 1010.3 |
| 20260902004028 | 30 | 214 | 6.4 | 8.0 | 0.00 | 0.00 | 0.00 | 75 | 1010.4 |
| 20260902003523 | 30 | 196 | 3.2 | 4.8 | 0.00 | 0.00 | 0.00 | 75 | 1010.5 |
| 20260902003018 | 30 | 207 | 3.2 | 3.2 | 0.00 | 0.00 | 0.00 | 75 | 1010.4 |
| 20260902002514 | 30 | 153 | 1.6 | 4.8 | 0.00 | 0.00 | 0.00 | 75 | 1010.5 |
| 20260902002009 | 30 | 216 | 4.8 | 4.8 | 0.00 | 0.00 | 0.00 | 74 | 1010.4 |
| 20260902001503 | 31 | 137 | 1.6 | 4.8 | 0.00 | 0.00 | 0.00 | 74 | 1010.4 |
| 20260902000958 | 31 | 41 | 1.6 | 3.2 | 0.00 | 0.00 | 0.00 | 74 | 1010.4 |
| 20260902000453 | 31 | 287 | 3.2 | 4.8 | 0.00 | 0.00 | 0.00 | 73 | 1010.3 |
| 20260901235948 | 31 | 199 | 3.2 | 8.0 | 0.00 | 0.00 | 0.00 | 72 | 1010.5 |
| 20260901235443 | 31 | 250 | 3.2 | 4.8 | 0.00 | 0.00 | 0.00 | 73 | 1010.4 |
| 20260901234938 | 31 | 251 | 1.6 | 3.2 | 0.00 | 0.00 | 0.00 | 73 | 1010.6 |
| 20260901234432 | 31 | 218 | 4.8 | 8.0 | 0.00 | 0.00 | 0.00 | 72 | 1010.4 |
| 20260901233926 | 31 | 216 | 1.6 | 4.8 | 0.00 | 0.00 | 0.00 | 72 | 1010.5 |
| 20260901233422 | 32 | 258 | 1.6 | 8.0 | 0.00 | 0.00 | 0.00 | 72 | 1010.5 |
| 20260901232918 | 32 | 236 | 4.8 | 9.7 | 0.00 | 0.00 | 0.00 | 71 | 1010.5 |
| 20260901232413 | 32 | 121 | 1.6 | 4.8 | 0.00 | 0.00 | 0.00 | 71 | 1010.5 |
| 20260901231908 | 32 | 133 | 4.8 | 8.0 | 0.00 | 0.00 | 0.00 | 72 | 1010.8 |
| 20260901231404 | 32 | 120 | 3.2 | 8.0 | 0.00 | 0.00 | 0.00 | 72 | 1010.7 |
| 20260901230901 | 32 | 288 | 3.2 | 3.2 | 0.00 | 0.00 | 0.00 | 72 | 1010.6 |
| 20260901230400 | 32 | 200 | 1.6 | 3.2 | 0.00 | 0.00 | 0.00 | 71 | 1010.7 |
| 20260901225855 | 32 | 250 | 3.2 | 4.8 | 0.00 | 0.00 | 0.00 | 70 | 1010.7 |
| 20260901225355 | 32 | 230 | 4.8 | 8.0 | 0.00 | 0.00 | 0.00 | 71 | 1010.8 |
| 20260901224850 | 32 | 277 | 4.8 | 8.0 | 0.00 | 0.00 | 0.00 | 72 | 1010.6 |
| 20260901224346 | 32 | 145 | 3.2 | 3.2 | 0.00 | 0.00 | 0.00 | 72 | 1010.7 |
| 20260901223842 | 32 | 147 | 1.6 | 3.2 | 0.00 | 0.00 | 0.00 | 72 | 1010.9 |
| 20260901223338 | 32 | 118 | 1.6 | 3.2 | 0.00 | 0.00 | 0.00 | 71 | 1010.9 |
| 20260901222833 | 32 | 101 | 1.6 | 3.2 | 0.00 | 0.00 | 0.00 | 71 | 1010.9 |
| 20260901222330 | 32 | 112 | 1.6 | 4.8 | 0.00 | 0.00 | 0.00 | 70 | 1010.7 |
| 20260901221825 | 32 | 229 | 3.2 | 4.8 | 0.00 | 0.00 | 0.00 | 71 | 1010.8 |
| 20260901221320 | 32 | 256 | 3.2 | 8.0 | 0.00 | 0.00 | 0.00 | 70 | 1011.0 |
| 20260901220820 | 32 | 199 | 4.8 | 4.8 | 0.00 | 0.00 | 0.00 | 70 | 1010.8 |
| 20260901220319 | 32 | 211 | 3.2 | 9.7 | 0.00 | 0.00 | 0.00 | 70 | 1010.9 |
| 20260901215818 | 33 | 167 | 4.8 | 4.8 | 0.00 | 0.00 | 0.00 | 69 | 1010.9 |
| 20260901215317 | 33 | 191 | 3.2 | 4.8 | 0.00 | 0.00 | 0.00 | 66 | 1010.6 |
| 20260901214816 | 33 | 167 | 3.2 | 4.8 | 0.00 | 0.00 | 0.00 | 68 | 1010.5 |
| 20260901214315 | 33 | 207 | 1.6 | 3.2 | 0.00 | 0.00 | 0.00 | 68 | 1010.6 |
| 20260901213810 | 33 | 213 | 1.6 | 3.2 | 0.00 | 0.00 | 0.00 | 66 | 1010.7 |
| 20260901213309 | 33 | 189 | 1.6 | 8.0 | 0.00 | 0.00 | 0.00 | 65 | 1010.6 |
| 20260901212804 | 33 | 109 | 1.6 | 8.0 | 0.00 | 0.00 | 0.00 | 66 | 1010.7 |
| 20260901212300 | 34 | 143 | 1.6 | 8.0 | 0.00 | 0.00 | 0.00 | 67 | 1010.6 |
| 20260901211755 | 34 | 234 | 4.8 | 8.0 | 0.00 | 0.00 | 0.00 | 64 | 1010.6 |
| 20260901211251 | 34 | 94 | 1.6 | 3.2 | 0.00 | 0.00 | 0.00 | 66 | 1010.7 |
| 20260901210747 | 33 | 288 | 3.2 | 9.7 | 0.00 | 0.00 | 0.00 | 62 | 1010.9 |
| 20260901210243 | 34 | 150 | 1.6 | 8.0 | 0.00 | 0.00 | 0.00 | 67 | 1010.9 |
| 20260901205739 | 34 | 248 | 3.2 | 4.8 | 0.00 | 0.00 | 0.00 | 67 | 1010.9 |
| 20260901205238 | 33 | 245 | 1.6 | 3.2 | 0.00 | 0.00 | 0.00 | 67 | 1011.0 |
| 20260901204734 | 33 | 220 | 3.2 | 4.8 | 0.00 | 0.00 | 0.00 | 67 | 1010.7 |
| 20260901204230 | 33 | 113 | 1.6 | 1.6 | 0.00 | 0.00 | 0.00 | 69 | 1010.9 |
| 20260901203725 | 33 | 212 | 1.6 | 4.8 | 0.00 | 0.00 | 0.00 | 67 | 1010.8 |
| 20260901203225 | 33 | 310 | 1.6 | 3.2 | 0.00 | 0.00 | 0.00 | 68 | 1011.0 |
| 20260901202724 | 34 | 105 | 1.6 | 8.0 | 0.00 | 0.00 | 0.00 | 67 | 1010.9 |
| 20260901202220 | 34 | 225 | 4.8 | 8.0 | 0.00 | 0.00 | 0.00 | 66 | 1010.9 |
| 20260901201716 | 34 | 212 | 1.6 | 4.8 | 0.00 | 0.00 | 0.00 | 65 | 1010.8 |
| 20260901201215 | 34 | 250 | 3.2 | 4.8 | 0.00 | 0.00 | 0.00 | 67 | 1011.0 |
| 20260901200715 | 34 | 233 | 1.6 | 8.0 | 0.00 | 0.00 | 0.00 | 66 | 1011.1 |
| 20260901200210 | 33 | 226 | 4.8 | 9.7 | 0.00 | 0.00 | 0.00 | 66 | 1011.1 |
| 20260901195708 | 34 | 180 | 4.8 | 4.8 | 0.00 | 0.00 | 0.00 | 67 | 1011.1 |
| 20260901195202 | 35 | 92 | 3.2 | 9.7 | 0.00 | 0.00 | 0.00 | 66 | 1011.0 |
| 20260901194658 | 35 | 225 | 1.6 | 3.2 | 0.00 | 0.00 | 0.00 | 66 | 1010.9 |
| 20260901194153 | 35 | 243 | 1.6 | 8.0 | 0.00 | 0.00 | 0.00 | 67 | 1011.1 |
| 20260901193648 | 35 | 76 | 3.2 | 8.0 | 0.00 | 0.00 | 0.00 | 65 | 1011.2 |
| 20260901193142 | 35 | 168 | 4.8 | 9.7 | 0.00 | 0.00 | 0.00 | 67 | 1011.2 |
| 20260901192637 | 35 | 242 | 3.2 | 8.0 | 0.00 | 0.00 | 0.00 | 66 | 1011.2 |
| 20260901192132 | 35 | 245 | 3.2 | 8.0 | 0.00 | 0.00 | 0.00 | 64 | 1011.3 |
| 20260901191628 | 35 | 90 | 1.6 | 3.2 | 0.00 | 0.00 | 0.00 | 64 | 1011.2 |
| 20260901191125 | 35 | 206 | 3.2 | 9.7 | 0.00 | 0.00 | 0.00 | 64 | 1011.3 |
| 20260901190620 | 35 | 269 | 1.6 | 11.3 | 0.00 | 0.00 | 0.00 | 65 | 1011.1 |
| 20260901190119 | 35 | 177 | 3.2 | 4.8 | 0.00 | 0.00 | 0.00 | 69 | 1011.4 |
| 20260901185618 | 34 | 270 | 1.6 | 4.8 | 0.00 | 0.00 | 0.00 | 70 | 1011.3 |
| 20260901185116 | 34 | 231 | 0.0 | 3.2 | 0.00 | 0.00 | 0.00 | 70 | 1011.4 |
| 20260901184612 | 33 | 174 | 4.8 | 9.7 | 0.00 | 0.00 | 0.00 | 68 | 1011.5 |
| 20260901184108 | 34 | 165 | 1.6 | 8.0 | 0.00 | 0.00 | 0.00 | 71 | 1011.6 |
| 20260901183602 | 33 | 159 | 3.2 | 8.0 | 0.00 | 0.00 | 0.00 | 70 | 1011.5 |
| 20260901183057 | 33 | 161 | 1.6 | 12.9 | 0.00 | 0.00 | 0.00 | 69 | 1011.5 |
| 20260901182553 | 33 | 173 | 4.8 | 11.3 | 0.00 | 0.00 | 0.00 | 68 | 1011.4 |
| 20260901182048 | 33 | 22 | 6.4 | 9.7 | 0.00 | 0.00 | 0.00 | 68 | 1011.6 |
| 20260901181547 | 33 | 102 | 0.0 | 8.0 | 0.00 | 0.00 | 0.00 | 69 | 1011.7 |
| 20260901181047 | 33 | 100 | 1.6 | 8.0 | 0.00 | 0.00 | 0.00 | 69 | 1011.7 |
| 20260901180545 | 33 | 99 | 4.8 | 8.0 | 0.00 | 0.00 | 0.00 | 69 | 1011.6 |
| 20260901180040 | 33 | 100 | 1.6 | 3.2 | 0.00 | 0.00 | 0.00 | 68 | 1011.7 |
| 20260901175534 | 33 | 95 | 3.2 | 8.0 | 0.00 | 0.00 | 0.00 | 70 | 1011.7 |
| 20260901175028 | 33 | 104 | 1.6 | 8.0 | 0.00 | 0.00 | 0.00 | 69 | 1011.7 |
| 20260901174524 | 33 | 108 | 1.6 | 4.8 | 0.00 | 0.00 | 0.00 | 70 | 1011.5 |
| 20260901174020 | 33 | 103 | 1.6 | 8.0 | 0.00 | 0.00 | 0.00 | 70 | 1011.6 |
| 20260901173515 | 33 | 100 | 0.0 | 4.8 | 0.00 | 0.00 | 0.00 | 71 | 1011.6 |
| 20260901173011 | 33 | 93 | 3.2 | 8.0 | 0.00 | 0.00 | 0.00 | 71 | 1011.8 |
| 20260901172506 | 33 | 101 | 3.2 | 4.8 | 0.00 | 0.00 | 0.00 | 71 | 1011.6 |
| 20260901172004 | 33 | 114 | 4.8 | 8.0 | 0.00 | 0.00 | 0.00 | 73 | 1011.7 |
| 20260901171503 | 32 | 103 | 3.2 | 8.0 | 0.00 | 0.00 | 0.00 | 73 | 1011.7 |
| 20260901171002 | 32 | 128 | 3.2 | 9.7 | 0.00 | 0.00 | 0.00 | 71 | 1011.9 |
| 20260901170456 | 32 | 117 | 4.8 | 4.8 | 0.00 | 0.00 | 0.00 | 71 | 1011.9 |
| 20260901165955 | 32 | 167 | 4.8 | 4.8 | 0.00 | 0.00 | 0.00 | 72 | 1012.1 |
| 20260901165451 | 32 | 112 | 4.8 | 8.0 | 0.00 | 0.00 | 0.00 | 72 | 1012.1 |
| 20260901164947 | 32 | 100 | 1.6 | 4.8 | 0.00 | 0.00 | 0.00 | 74 | 1012.2 |
| 20260901164442 | 32 | 104 | 1.6 | 3.2 | 0.00 | 0.00 | 0.00 | 75 | 1012.1 |
| 20260901163937 | 32 | 102 | 1.6 | 1.6 | 0.00 | 0.00 | 0.00 | 74 | 1012.1 |
| 20260901163432 | 32 | 110 | 4.8 | 9.7 | 0.00 | 0.00 | 0.00 | 74 | 1012.1 |
| 20260901162930 | 32 | 94 | 6.4 | 8.0 | 0.00 | 0.00 | 0.00 | 73 | 1012.3 |
| 20260901162426 | 32 | 128 | 3.2 | 3.2 | 0.00 | 0.00 | 0.00 | 74 | 1012.1 |
| 20260901161920 | 31 | 103 | 4.8 | 4.8 | 0.00 | 0.00 | 0.00 | 75 | 1012.2 |
| 20260901161419 | 31 | 113 | 3.2 | 8.0 | 0.00 | 0.00 | 0.00 | 76 | 1012.3 |
| 20260901160914 | 31 | 125 | 4.8 | 9.7 | 0.00 | 0.00 | 0.00 | 75 | 1012.3 |
| 20260901160410 | 31 | 108 | 3.2 | 8.0 | 0.00 | 0.00 | 0.00 | 76 | 1012.2 |
| 20260901155909 | 31 | 105 | 4.8 | 8.0 | 0.00 | 0.00 | 0.00 | 76 | 1012.1 |
| 20260901155404 | 31 | 107 | 3.2 | 4.8 | 0.00 | 0.00 | 0.00 | 76 | 1012.3 |
| 20260901154901 | 30 | 110 | 4.8 | 4.8 | 0.00 | 0.00 | 0.00 | 76 | 1011.9 |
| 20260901154400 | 30 | 117 | 1.6 | 8.0 | 0.00 | 0.00 | 0.00 | 78 | 1011.8 |
| 20260901153855 | 30 | 170 | 4.8 | 8.0 | 0.00 | 0.00 | 0.00 | 77 | 1012.3 |
| 20260901153354 | 30 | 108 | 1.6 | 4.8 | 0.00 | 0.00 | 0.00 | 80 | 1012.1 |
| 20260901152854 | 30 | 110 | 1.6 | 3.2 | 0.00 | 0.00 | 0.00 | 78 | 1012.1 |
| 20260901152349 | 30 | 119 | 3.2 | 8.0 | 0.00 | 0.00 | 0.00 | 78 | 1012.3 |
| 20260901151843 | 30 | 110 | 0.0 | 1.6 | 0.00 | 0.00 | 0.00 | 79 | 1012.2 |
| 20260901151338 | 30 | 104 | 1.6 | 1.6 | 0.00 | 0.00 | 0.00 | 79 | 1011.9 |
| 20260901150837 | 29 | 112 | 1.6 | 4.8 | 0.00 | 0.00 | 0.00 | 80 | 1012.1 |
| 20260901150335 | 29 | 141 | 4.8 | 4.8 | 0.00 | 0.00 | 0.00 | 79 | 1012.1 |
| 20260901145833 | 29 | 105 | 1.6 | 1.6 | 0.00 | 0.00 | 0.00 | 80 | 1012.2 |
| 20260901145327 | 28 | 107 | 1.6 | 4.8 | 0.00 | 0.00 | 0.00 | 80 | 1011.9 |
| 20260901144822 | 28 | 111 | 1.6 | 4.8 | 0.00 | 0.00 | 0.00 | 80 | 1012.3 |
| 20260901144318 | 28 | 105 | 1.6 | 4.8 | 0.00 | 0.00 | 0.00 | 82 | 1012.1 |
| 20260901143814 | 28 | 106 | 1.6 | 3.2 | 0.00 | 0.00 | 0.00 | 81 | 1012.1 |
| 20260901143310 | 28 | 104 | 3.2 | 8.0 | 0.00 | 0.00 | 0.00 | 81 | 1012.1 |
| 20260901142806 | 28 | 101 | 4.8 | 8.0 | 0.00 | 0.00 | 0.00 | 82 | 1012.1 |
| 20260901142306 | 28 | 119 | 1.6 | 4.8 | 0.00 | 0.00 | 0.00 | 82 | 1012.2 |
| 20260901141800 | 27 | 120 | 1.6 | 4.8 | 0.00 | 0.00 | 0.00 | 82 | 1012.2 |
| 20260901141255 | 27 | 110 | 3.2 | 4.8 | 0.00 | 0.00 | 0.00 | 83 | 1012.1 |
| 20260901140754 | 27 | 103 | 4.8 | 4.8 | 0.00 | 0.00 | 0.00 | 83 | 1011.9 |
| 20260901140252 | 27 | 97 | 3.2 | 3.2 | 0.00 | 0.00 | 0.00 | 84 | 1011.9 |
| 20260901135748 | 27 | 105 | 3.2 | 8.0 | 0.00 | 0.00 | 0.00 | 85 | 1011.6 |
| 20260901135247 | 26 | 101 | 4.8 | 4.8 | 0.00 | 0.00 | 0.00 | 86 | 1012.1 |
| 20260901134744 | 26 | 107 | 0.0 | 1.6 | 0.00 | 0.00 | 0.00 | 87 | 1012.2 |
| 20260901134243 | 26 | 106 | 3.2 | 9.7 | 0.00 | 0.00 | 0.00 | 88 | 1012.1 |
| 20260901133742 | 26 | 108 | 1.6 | 3.2 | 0.00 | 0.00 | 0.00 | 89 | 1012.2 |
| 20260901133237 | 26 | 108 | 3.2 | 3.2 | 0.00 | 0.00 | 0.00 | 88 | 1012.2 |
| 20260901132735 | 25 | 114 | 1.6 | 4.8 | 0.00 | 0.00 | 0.00 | 88 | 1012.3 |
| 20260901132230 | 25 | 117 | 3.2 | 3.2 | 0.00 | 0.00 | 0.00 | 89 | 1012.1 |
| 20260901131725 | 25 | 112 | 0.0 | 1.6 | 0.00 | 0.00 | 0.00 | 90 | 1012.2 |
| 20260901131224 | 25 | 109 | 0.0 | 3.2 | 0.00 | 0.00 | 0.00 | 90 | 1012.2 |
| 20260901130720 | 25 | 109 | 0.0 | 1.6 | 0.00 | 0.00 | 0.00 | 91 | 1012.3 |
| 20260901130219 | 25 | 119 | 1.6 | 3.2 | 0.00 | 0.00 | 0.00 | 92 | 1012.3 |
| 20260901125717 | 25 | 118 | 0.0 | 1.6 | 0.00 | 0.00 | 0.00 | 92 | 1012.4 |
| 20260901125212 | 25 | 119 | 1.6 | 3.2 | 0.00 | 0.00 | 0.00 | 92 | 1012.4 |
| 20260901124706 | 25 | 118 | 1.6 | 1.6 | 0.00 | 0.00 | 0.00 | 93 | 1012.4 |
| 20260901124201 | 25 | 111 | 1.6 | 3.2 | 0.00 | 0.00 | 0.00 | 93 | 1012.6 |
| 20260901123655 | 24 | 115 | 1.6 | 3.2 | 0.00 | 0.00 | 0.00 | 93 | 1012.6 |
| 20260901123155 | 24 | 118 | 0.0 | 1.6 | 0.00 | 0.00 | 0.00 | 93 | 1012.4 |
| 20260901122654 | 24 | 118 | 1.6 | 1.6 | 0.00 | 0.00 | 0.00 | 93 | 1012.2 |
| 20260901122149 | 24 | 117 | 0.0 | 1.6 | 0.00 | 0.00 | 0.00 | 94 | 1012.2 |
| 20260901121643 | 24 | 121 | 1.6 | 3.2 | 0.00 | 0.00 | 0.00 | 94 | 1012.2 |
| 20260901121139 | 24 | 120 | 1.6 | 1.6 | 0.00 | 0.00 | 0.00 | 94 | 1012.2 |
| 20260901120638 | 24 | 119 | 0.0 | 1.6 | 0.00 | 0.00 | 0.00 | 94 | 1011.9 |
| 20260901120133 | 24 | 118 | 1.6 | 1.6 | 0.00 | 0.00 | 0.00 | 95 | 1011.6 |
| 20260901115629 | 23 | 120 | 0.0 | 0.0 | 0.00 | 0.00 | 0.00 | 95 | 1011.7 |
| 20260901115125 | 23 | 119 | 0.0 | 0.0 | 0.00 | 0.00 | 0.00 | 95 | 1011.7 |
| 20260901114622 | 23 | 119 | 0.0 | 1.6 | 0.00 | 0.00 | 0.00 | 95 | 1011.8 |
| 20260901114120 | 23 | 120 | 1.6 | 3.2 | 0.00 | 0.00 | 0.00 | 95 | 1011.6 |
| 20260901113619 | 23 | 121 | 0.0 | 1.6 | 0.00 | 0.00 | 0.00 | 95 | 1011.5 |
| 20260901113114 | 23 | 120 | 0.0 | 0.0 | 0.00 | 0.00 | 0.00 | 95 | 1011.5 |
| 20260901112609 | 23 | 120 | 0.0 | 0.0 | 0.00 | 0.00 | 0.00 | 95 | 1011.7 |
| 20260901112104 | 23 | 119 | 0.0 | 0.0 | 0.00 | 0.00 | 0.00 | 95 | 1011.6 |
| 20260901111603 | 23 | 121 | 0.0 | 0.0 | 0.00 | 0.00 | 0.00 | 95 | 1011.4 |
| 20260901111101 | 23 | 118 | 0.0 | 0.0 | 0.00 | 0.00 | 0.00 | 95 | 1011.4 |
| 20260901110557 | 23 | 123 | 0.0 | 0.0 | 0.00 | 0.00 | 0.00 | 95 | 1011.3 |
| 20260901110052 | 23 | 119 | 0.0 | 0.0 | 0.00 | 0.00 | 0.00 | 95 | 1011.1 |
| 20260901105549 | 23 | 120 | 0.0 | 0.0 | 0.00 | 0.00 | 0.00 | 95 | 1011.0 |
| 20260901105048 | 23 | 119 | 0.0 | 0.0 | 0.00 | 0.00 | 0.00 | 96 | 1011.2 |
| 20260901104544 | 23 | 121 | 0.0 | 0.0 | 0.00 | 0.00 | 0.00 | 95 | 1011.3 |
| 20260901104040 | 23 | 119 | 0.0 | 0.0 | 0.00 | 0.00 | 0.00 | 95 | 1011.3 |
| 20260901103534 | 23 | 120 | 0.0 | 0.0 | 0.00 | 0.00 | 0.00 | 95 | 1011.2 |
| 20260901103030 | 23 | 122 | 0.0 | 0.0 | 0.00 | 0.00 | 0.00 | 95 | 1011.2 |
| 20260901102529 | 23 | 120 | 0.0 | 1.6 | 0.00 | 0.00 | 0.00 | 95 | 1011.3 |
| 20260901102024 | 24 | 119 | 0.0 | 0.0 | 0.00 | 0.00 | 0.00 | 94 | 1010.9 |
| 20260901101520 | 24 | 120 | 0.0 | 0.0 | 0.00 | 0.00 | 0.00 | 93 | 1011.0 |
| 20260901101019 | 24 | 121 | 0.0 | 0.0 | 0.00 | 0.00 | 0.00 | 93 | 1011.3 |
| 20260901100514 | 24 | 121 | 0.0 | 1.6 | 0.00 | 0.00 | 0.00 | 93 | 1011.1 |
| 20260901100014 | 24 | 121 | 1.6 | 1.6 | 0.00 | 0.00 | 0.00 | 93 | 1011.0 |
| 20260901095512 | 24 | 120 | 0.0 | 1.6 | 0.00 | 0.00 | 0.00 | 93 | 1011.0 |
| 20260901095010 | 24 | 122 | 0.0 | 1.6 | 0.00 | 0.00 | 0.00 | 93 | 1011.2 |
| 20260901094505 | 24 | 122 | 0.0 | 1.6 | 0.00 | 0.00 | 0.00 | 93 | 1011.0 |
| 20260901094004 | 24 | 120 | 1.6 | 1.6 | 0.00 | 0.00 | 0.00 | 92 | 1011.1 |
| 20260901093504 | 24 | 121 | 0.0 | 1.6 | 0.00 | 0.00 | 0.00 | 92 | 1011.0 |
| 20260901092959 | 24 | 121 | 0.0 | 1.6 | 0.00 | 0.00 | 0.00 | 92 | 1010.9 |
| 20260901092454 | 24 | 122 | 0.0 | 1.6 | 0.00 | 0.00 | 0.00 | 92 | 1010.8 |
| 20260901091945 | 25 | 120 | 0.0 | 3.2 | 0.00 | 0.00 | 0.00 | 92 | 1011.0 |
| 20260901091440 | 25 | 119 | 0.0 | 3.2 | 0.00 | 0.00 | 0.00 | 91 | 1010.9 |
| 20260901090935 | 25 | 123 | 1.6 | 3.2 | 0.00 | 0.00 | 0.00 | 91 | 1011.1 |
| 20260901090434 | 25 | 120 | 0.0 | 1.6 | 0.00 | 0.00 | 0.00 | 91 | 1011.0 |
| 20260901085930 | 25 | 120 | 0.0 | 3.2 | 0.00 | 0.00 | 0.00 | 91 | 1010.8 |
| 20260901085426 | 25 | 119 | 0.0 | 1.6 | 0.00 | 0.00 | 0.00 | 91 | 1010.8 |
| 20260901084922 | 25 | 121 | 0.0 | 1.6 | 0.00 | 0.00 | 0.00 | 91 | 1011.0 |
| 20260901084418 | 25 | 123 | 0.0 | 1.6 | 0.00 | 0.00 | 0.00 | 90 | 1010.8 |
| 20260901083913 | 25 | 125 | 1.6 | 3.2 | 0.00 | 0.00 | 0.00 | 90 | 1010.7 |
| 20260901083408 | 25 | 129 | 1.6 | 1.6 | 0.00 | 0.00 | 0.00 | 90 | 1010.8 |
| 20260901082906 | 25 | 110 | 0.0 | 1.6 | 0.00 | 0.00 | 0.00 | 90 | 1010.9 |
| 20260901082401 | 25 | 119 | 0.0 | 4.8 | 0.00 | 0.00 | 0.00 | 90 | 1010.6 |
| 20260901081856 | 25 | 112 | 1.6 | 4.8 | 0.00 | 0.00 | 0.00 | 89 | 1010.7 |
| 20260901081352 | 25 | 109 | 3.2 | 3.2 | 0.00 | 0.00 | 0.00 | 89 | 1011.0 |
| 20260901080851 | 25 | 106 | 1.6 | 4.8 | 0.00 | 0.00 | 0.00 | 89 | 1010.7 |
| 20260901080346 | 25 | 118 | 1.6 | 3.2 | 0.00 | 0.00 | 0.00 | 89 | 1010.9 |
| 20260901075840 | 25 | 103 | 1.6 | 8.0 | 0.00 | 0.00 | 0.00 | 89 | 1010.7 |
| 20260901075336 | 25 | 111 | 3.2 | 3.2 | 0.00 | 0.00 | 0.00 | 89 | 1010.7 |
| 20260901074830 | 25 | 122 | 1.6 | 4.8 | 0.00 | 0.00 | 0.00 | 89 | 1010.7 |
| 20260901074325 | 25 | 107 | 3.2 | 4.8 | 0.00 | 0.00 | 0.00 | 89 | 1010.7 |
| 20260901073821 | 25 | 118 | 3.2 | 3.2 | 0.00 | 0.00 | 0.00 | 88 | 1010.8 |
| 20260901073316 | 25 | 123 | 3.2 | 4.8 | 0.00 | 0.00 | 0.00 | 88 | 1010.8 |
| 20260901072812 | 25 | 115 | 1.6 | 4.8 | 0.00 | 0.00 | 0.00 | 88 | 1010.8 |
| 20260901072311 | 25 | 109 | 1.6 | 3.2 | 0.00 | 0.00 | 0.00 | 88 | 1010.8 |
| 20260901071807 | 25 | 107 | 1.6 | 3.2 | 0.00 | 0.00 | 0.00 | 88 | 1010.6 |
| 20260901071305 | 25 | 123 | 3.2 | 4.8 | 0.00 | 0.00 | 0.00 | 87 | 1010.6 |
| 20260901070804 | 25 | 116 | 1.6 | 8.0 | 0.00 | 0.00 | 0.00 | 87 | 1010.6 |
| 20260901070300 | 25 | 117 | 1.6 | 3.2 | 0.00 | 0.00 | 0.00 | 88 | 1010.8 |
| 20260901065759 | 25 | 118 | 1.6 | 4.8 | 0.00 | 0.00 | 0.00 | 88 | 1010.7 |
| 20260901065254 | 25 | 110 | 0.0 | 1.6 | 0.00 | 0.00 | 0.00 | 88 | 1010.6 |
| 20260901064750 | 25 | 136 | 1.6 | 3.2 | 0.00 | 0.00 | 0.00 | 89 | 1010.5 |
| 20260901064246 | 25 | 118 | 1.6 | 4.8 | 0.00 | 0.00 | 0.00 | 89 | 1010.7 |
| 20260901063744 | 25 | 111 | 0.0 | 3.2 | 0.00 | 0.00 | 0.00 | 89 | 1010.7 |
| 20260901063239 | 25 | 132 | 1.6 | 3.2 | 0.00 | 0.00 | 0.00 | 89 | 1010.8 |
| 20260901062735 | 25 | 111 | 0.0 | 1.6 | 0.00 | 0.00 | 0.00 | 89 | 1010.5 |
| 20260901062231 | 25 | 86 | 0.0 | 1.6 | 0.00 | 0.00 | 0.00 | 89 | 1010.4 |
| 20260901061727 | 25 | 115 | 1.6 | 1.6 | 0.00 | 0.00 | 0.00 | 89 | 1010.5 |
| 20260901061226 | 25 | 110 | 0.0 | 3.2 | 0.00 | 0.00 | 0.00 | 89 | 1010.5 |
| 20260901060722 | 25 | 111 | 0.0 | 1.6 | 0.00 | 0.00 | 0.00 | 89 | 1010.5 |
| 20260901060217 | 25 | 135 | 3.2 | 3.2 | 0.00 | 0.00 | 0.00 | 89 | 1010.4 |
| 20260901055712 | 25 | 113 | 3.2 | 3.2 | 0.00 | 0.00 | 0.00 | 89 | 1010.6 |
| 20260901055209 | 25 | 117 | 1.6 | 3.2 | 0.00 | 0.00 | 0.00 | 89 | 1010.6 |
| 20260901054706 | 25 | 144 | 3.2 | 4.8 | 0.00 | 0.00 | 0.00 | 89 | 1010.4 |
| 20260901054202 | 25 | 111 | 1.6 | 3.2 | 0.00 | 0.00 | 0.00 | 89 | 1010.7 |
| 20260901053658 | 25 | 112 | 1.6 | 1.6 | 0.00 | 0.00 | 0.00 | 89 | 1010.7 |
| 20260901053153 | 25 | 112 | 0.0 | 3.2 | 0.00 | 0.00 | 0.00 | 89 | 1010.6 |
| 20260901052648 | 25 | 110 | 1.6 | 1.6 | 0.00 | 0.00 | 0.00 | 89 | 1010.5 |
| 20260901052143 | 25 | 112 | 0.0 | 4.8 | 0.00 | 0.00 | 0.00 | 89 | 1010.7 |
| 20260901051642 | 26 | 108 | 0.0 | 3.2 | 0.00 | 0.00 | 0.00 | 89 | 1010.7 |
| 20260901051142 | 26 | 112 | 1.6 | 1.6 | 0.00 | 0.00 | 0.00 | 88 | 1010.6 |
| 20260901050637 | 26 | 118 | 3.2 | 3.2 | 0.00 | 0.00 | 0.00 | 88 | 1010.7 |
| 20260901050132 | 26 | 108 | 0.0 | 1.6 | 0.00 | 0.00 | 0.00 | 88 | 1010.6 |